sat.trackr.live / text

‹ back to catalog

STARLINK-5804

NORAD 55788 · 2023-028AZ

PAYLOAD ACTIVE UNKNOWN

§ Identity

Operator
Country
US
Launch date
2023-03-03
Launch site
AFWTR
Launch vehicle
Mass (kg)
RCS (m²)

Purposes: comms

External: N2YO · Heavens-Above · Gunter

§ Orbital elements

Epoch: 2026-09-20T22:00:03.000096Z

Period
95.70 min
Inclination
70.0010°
Eccentricity
0.0004130
Mean motion
15.04752622 rev/d
Perigee alt
549.4 km
Apogee alt
555.1 km
Semi-major
6,930.4 km
B*
5.8299e-3
RAAN
72.2809°
Arg perigee
239.8706°
Mean anomaly
277.1765°
Rev number
576

§ Raw data

STARLINK-58041 55788U 23028AZ  26263.91670139  .00083234  00000+0  58299-2 0  99972 55788  70.0010  72.2809 0004130 239.8706 277.1765 15.04752622  5761

JSON: /api/v1/satellites/55788 · /tle

For live sub-satellite position, see the globe view (requires WebGL).

§ Visibility from observer

Set your observer location to see the next 7 days of passes ≥ 10°. The values pass through the URL so the page stays shareable.

No JS? Fill the form by hand. The geolocation button needs JavaScript.